Lapse_Rate
8.0 8.2 8.7 8.9 9.2 9.0 8.2 7.6 7.0 7.3 7.4 7.4 7.6 7.7 6.9 7.0 7.5 8.1 7.9 7.6 6.9 7.3 7.5 7.4 7.3 7.0 6.6 6.5 6.0 6.1 6.0 5.7 5.8 5.8 5.7 5.5 5.4 5.4 4.9 5.0 4.9 4.4 4.6 5.1
8.0 8.0 8.2 8.6 8.8 8.6 9.0 8.8 9.1 8.9 8.6 8.3 8.4 8.8 7.6 7.2 8.0 7.6 7.7 7.7 7.4 7.2 7.1 7.6 7.5 7.5 7.1 6.5 6.0 5.9 6.2 5.7 5.6 5.5 5.5 5.3 5.2 5.3 5.1 5.1 4.8 5.1 5.5 5.4
7.7 8.1 8.3 7.8 8.3 8.9 9.0 9.2 9.2 9.0 8.8 9.1 9.1 9.0 8.6 8.4 8.5 8.4 8.1 7.9 7.8 7.7 7.4 7.1 7.6 7.4 7.6 7.3 7.1 6.7 6.5 6.3 5.9 5.7 5.7 5.5 5.3 5.3 5.5 5.5 5.4 5.6 5.5 5.4
7.7 7.9 8.2 8.2 8.6 8.9 9.2 9.1 9.0 9.3 9.0 9.3 9.3 9.0 7.9 8.2 8.2 8.3 7.9 7.6 7.4 7.7 7.9 7.5 7.4 7.7 7.7 7.3 7.0 7.1 6.8 6.4 6.3 6.0 6.1 6.0 5.9 5.7 5.6 5.9 5.5 5.2 5.3 5.4
7.8 8.0 8.2 8.1 8.6 8.5 8.9 9.0 9.3 9.4 9.3 9.3 9.2 8.8 8.4 8.4 8.0 7.9 8.0 8.0 8.0 8.1 8.2 8.2 8.0 7.6 8.1 7.9 7.5 7.0 6.9 6.8 6.5 6.6 6.5 6.3 6.1 6.0 6.3 5.8 5.2 5.2 5.4 5.6
8.0 8.2 8.4 8.6 9.0 9.0 8.6 9.1 9.0 9.2 9.4 9.2 9.1 8.9 8.6 7.4 7.9 8.3 8.2 8.4 8.4 8.2 8.0 8.1 8.1 8.0 8.2 8.3 8.0 7.4 6.8 7.1 7.3 6.9 6.9 6.7 6.4 6.1 6.1 6.0 5.5 5.3 5.3 5.3
8.0 8.1 8.5 8.5 8.6 8.8 7.6 8.9 8.6 9.2 8.9 9.2 9.2 9.1 8.3 8.2 8.0 8.3 8.4 8.3 8.1 8.1 7.9 7.9 7.9 8.0 7.9 8.1 7.9 7.7 7.5 7.1 7.1 7.3 6.3 6.5 5.8 5.9 5.9 5.5 5.4 5.5 5.4 4.9
8.1 7.8 8.2 8.4 8.7 9.0 8.4 8.4 8.5 8.7 8.9 8.8 8.9 8.3 8.5 8.4 8.4 8.4 8.4 8.4 8.3 8.3 8.1 8.0 7.8 7.8 7.9 7.9 8.1 8.1 7.7 7.4 7.6 7.4 7.3 6.3 6.2 6.2 5.9 5.5 5.3 5.4 5.0 5.4
8.1 8.3 8.3 7.8 7.8 7.9 7.6 7.6 8.2 8.5 7.9 8.2 8.4 8.2 8.1 8.0 8.1 8.4 8.5 8.5 8.4 8.5 8.6 8.4 8.3 8.0 7.8 7.9 8.0 8.0 7.5 7.7 7.4 7.2 6.9 6.5 6.4 6.1 5.8 5.4 5.3 5.2 4.8 5.5
7.9 8.4 8.2 8.2 8.0 8.1 7.7 7.8 7.9 7.9 8.1 8.2 8.2 8.2 8.0 8.1 8.0 7.9 8.3 8.5 8.4 8.5 8.3 8.1 8.1 7.8 7.5 7.8 7.8 7.5 7.5 7.5 7.0 6.8 6.6 6.5 6.4 6.1 6.0 5.4 5.5 4.8 5.6 5.5
8.0 8.1 8.1 7.9 8.0 7.9 7.8 7.7 8.1 8.1 8.1 8.1 8.1 8.1 8.1 8.1 8.0 7.9 8.1 8.2 8.4 8.4 8.3 8.1 7.6 7.6 7.3 7.4 7.7 7.8 7.7 7.5 7.1 6.8 6.6 6.5 6.4 5.9 5.6 5.5 5.4 5.0 5.3 5.5
8.3 8.4 8.1 8.0 7.8 7.3 7.5 7.5 7.7 7.8 8.0 8.0 7.8 7.9 7.9 8.0 8.1 7.7 7.7 8.1 8.1 8.4 8.3 8.1 7.7 7.5 7.1 7.2 7.3 7.2 7.2 7.1 6.9 6.7 6.6 6.4 6.2 6.2 6.0 6.0 5.7 5.6 5.5 5.5
8.1 8.0 7.7 7.6 7.5 7.5 7.4 7.3 7.6 7.7 7.5 7.4 7.5 7.4 7.5 8.3 8.2 7.8 7.8 8.0 7.9 8.3 8.2 7.8 7.8 7.5 7.4 7.1 7.0 7.0 6.8 6.6 6.6 6.4 6.4 6.3 6.1 5.9 5.7 5.7 5.8 5.8 5.7 5.6
8.1 7.7 7.7 7.7 7.4 7.6 7.9 7.9 7.6 7.6 7.5 7.4 7.3 7.3 7.4 7.9 7.8 7.7 7.8 7.9 7.9 8.1 8.1 7.8 7.4 7.4 7.2 7.0 7.0 6.8 6.8 6.6 6.4 6.2 6.1 6.1 6.0 6.1 5.9 5.9 5.8 5.5 5.4 5.3
7.9 7.7 7.7 7.7 7.4 7.1 7.0 7.0 7.1 7.3 7.5 7.5 7.6 7.5 7.2 7.3 7.6 7.7 7.8 7.8 7.9 8.1 8.3 7.8 7.5 7.4 7.2 7.2 7.1 6.9 6.8 6.5 6.2 6.1 6.1 6.0 6.0 5.9 6.0 5.8 5.7 5.7 5.7 5.6
7.4 7.5 7.5 7.8 7.9 8.0 7.8 7.6 7.3 7.4 7.5 7.5 7.4 7.1 7.0 7.0 7.1 7.5 7.6 7.8 8.0 8.0 7.7 7.7 7.4 7.2 7.1 7.0 6.9 6.7 6.4 6.1 6.0 6.1 6.0 6.1 5.8 5.6 5.9 6.0 5.7 5.6 5.6 5.5
7.4 7.3 7.4 7.6 7.8 8.0 7.6 7.8 7.5 7.8 7.9 7.9 7.8 7.6 7.4 7.2 7.1 7.6 7.7 8.0 7.8 7.7 7.5 7.5 7.1 7.0 7.0 6.9 6.6 6.3 6.1 6.1 6.0 6.0 6.0 6.0 5.9 6.0 5.9 5.8 5.7 5.6 5.8 5.9
7.3 7.3 7.3 7.7 7.7 7.7 7.9 7.2 7.3 7.5 7.6 7.6 7.5 7.4 7.2 7.4 7.5 7.4 7.6 7.6 7.5 7.4 7.3 7.0 6.9 6.9 6.7 6.5 6.4 6.2 6.1 6.0 6.0 6.0 6.1 6.2 6.2 6.2 6.1 6.0 5.9 5.9 6.0 6.3
7.5 7.7 7.7 7.7 7.8 7.8 7.8 7.8 7.7 7.7 7.4 7.4 7.5 7.4 7.2 7.1 7.0 7.0 7.1 7.4 7.2 7.1 7.0 6.9 6.8 6.6 6.5 6.4 6.2 6.2 6.1 6.1 6.1 6.2 6.4 6.4 6.3 6.2 6.2 6.1 6.1 6.1 6.0 6.2
7.5 7.7 7.8 7.8 7.7 7.8 7.8 7.7 7.6 7.3 7.0 7.1 7.1 6.9 7.1 7.2 7.2 7.1 7.1 7.2 7.0 6.9 6.8 6.6 6.5 6.4 6.3 6.2 6.1 6.2 6.3 6.3 6.3 6.4 6.4 6.4 6.3 6.2 6.2 6.2 6.1 6.1 6.0 5.8
7.6 7.8 7.8 7.8 7.7 7.8 7.8 7.7 7.6 7.4 7.2 7.1 7.0 7.1 7.2 7.1 7.1 7.1 7.0 7.0 6.9 6.7 6.5 6.4 6.3 6.2 6.2 6.2 6.3 6.5 6.5 6.5 6.5 6.6 6.6 6.3 6.4 6.2 6.1 6.1 6.0 5.9 5.8 5.8
7.6 7.7 7.7 7.7 7.8 7.9 7.9 7.8 7.8 7.6 7.4 7.1 7.0 7.0 6.9 6.9 6.9 6.9 6.9 6.8 6.6 6.6 6.5 6.4 6.4 6.4 6.4 6.3 6.4 6.5 6.4 6.4 6.5 6.5 6.5 6.4 6.2 6.2 6.1 6.0 6.0 5.9 5.8 5.8
7.6 7.6 7.5 7.6 7.8 7.8 7.9 7.8 7.7 7.5 7.3 7.0 6.9 6.9 6.8 6.8 6.8 6.8 6.7 6.6 6.5 6.5 6.5 6.5 6.4 6.3 6.2 6.4 6.4 6.3 6.4 6.4 6.4 6.4 6.4 6.4 6.3 6.2 6.1 6.1 6.0 5.9 5.8 5.8
7.3 7.5 7.3 7.3 7.4 7.4 7.5 7.4 7.3 7.2 7.2 7.1 7.0 6.9 6.8 6.9 6.9 6.8 6.7 6.6 6.5 6.6 6.5 6.4 6.4 6.4 6.4 6.3 6.3 6.3 6.4 6.4 6.4 6.4 6.4 6.3 6.2 6.1 6.1 6.0 5.9 5.8 5.8 5.8
7.0 7.1 7.1 7.1 7.1 7.1 7.1 7.0 7.0 7.0 7.0 7.0 7.0 6.9 6.9 6.9 6.8 6.7 6.6 6.6 6.5 6.5 6.4 6.4 6.4 6.4 6.4 6.4 6.5 6.5 6.5 6.5 6.5 6.5 6.4 6.3 6.1 6.0 5.9 5.8 5.8 5.7 5.9 6.0
6.8 6.6 6.5 6.7 6.8 6.8 6.8 6.8 6.8 6.8 6.9 6.8 6.8 6.8 6.7 6.6 6.5 6.5 6.4 6.5 6.4 6.5 6.5 6.5 6.4 6.5 6.5 6.5 6.6 6.6 6.5 6.5 6.4 6.3 6.2 6.1 6.0 5.9 5.8 5.8 5.9 6.0 6.1 6.1
6.8 6.5 6.3 6.3 6.4 6.5 6.5 6.5 6.5 6.6 6.7 6.7 6.8 6.7 6.5 6.4 6.5 6.5 6.4 6.4 6.5 6.5 6.4 6.4 6.4 6.5 6.5 6.5 6.5 6.5 6.5 6.4 6.4 6.4 6.3 6.2 6.0 5.9 5.9 6.0 6.2 6.1 5.9 5.7
Wind_Speed
26 30 29 32 33 29 21 22 14 21 22 24 19 13 12 18 18 13 12 10 9 9 9 9 11 11 13 14 12 13 14 14 12 12 12 12 11 11 12 13 12 12 11 10
24 25 29 32 33 29 27 28 27 25 27 24 20 13 16 19 17 12 10 10 6 9 9 11 12 12 15 15 13 10 11 10 9 11 11 10 11 11 13 13 12 11 11 10
23 23 25 17 30 29 24 25 26 24 25 22 20 18 11 13 10 9 6 3 4 4 8 12 13 13 14 14 14 13 12 13 12 11 12 11 11 11 12 13 13 11 10 10
19 20 24 24 17 28 28 25 24 24 22 20 19 9 13 6 7 7 1 3 3 3 4 6 14 13 15 15 15 13 12 14 12 13 12 12 14 14 13 12 12 10 10 10
18 18 22 29 22 20 16 20 19 19 14 17 13 6 10 9 4 3 2 5 4 5 5 7 9 15 17 14 13 12 12 14 14 15 15 14 14 14 12 11 10 10 10 10
18 22 23 22 24 12 30 18 18 19 18 16 10 7 2 8 5 2 2 4 6 7 7 7 9 8 16 14 13 13 14 13 13 14 15 13 12 13 12 12 12 9 10 9
18 18 19 24 26 17 13 10 5 9 11 11 8 3 13 5 3 4 3 4 6 6 6 7 7 4 13 13 12 10 12 11 12 13 13 13 12 10 12 11 10 10 10 9
10 13 20 16 20 22 10 9 3 12 6 6 7 7 3 2 1 2 4 3 3 4 5 4 3 4 7 8 10 13 13 14 14 14 11 11 14 13 13 12 12 11 11 8
8 7 6 12 15 10 13 19 7 10 6 2 8 8 8 5 2 2 3 4 3 3 2 2 4 6 8 8 12 13 13 13 13 13 13 13 13 12 10 11 9 8 8 8
14 12 16 10 17 11 11 15 11 12 9 8 8 8 7 6 4 4 3 3 1 3 4 5 6 8 10 12 13 14 14 15 13 13 13 12 10 8 8 8 8 8 9 8
18 19 15 9 17 10 12 13 13 9 8 9 9 7 6 5 5 5 3 3 3 3 4 5 8 10 12 11 14 14 14 13 13 11 12 11 9 7 7 7 8 8 7 7
12 16 14 13 9 7 12 15 10 13 10 8 8 9 8 6 5 5 5 4 3 5 6 8 9 11 12 12 11 13 13 11 10 10 10 10 10 8 9 9 7 7 10 6
15 15 17 18 16 16 14 15 15 12 9 9 9 7 8 6 3 4 6 6 4 9 9 9 11 11 10 11 10 12 13 12 10 10 11 10 10 10 9 8 10 10 11 8
17 15 18 17 15 15 17 19 16 17 15 14 13 9 9 7 6 2 3 2 4 8 8 9 9 10 11 12 11 11 11 13 10 9 8 9 9 9 9 10 9 8 8 9
13 12 16 16 16 16 16 16 18 19 17 16 15 13 12 10 10 8 5 5 8 9 9 9 11 10 10 10 10 10 10 9 8 8 8 9 9 10 9 10 9 9 9 9
17 15 16 16 16 16 18 21 20 17 17 17 17 16 16 15 12 9 8 8 9 9 9 10 10 10 11 11 12 9 9 12 10 9 8 9 8 9 9 9 9 9 8 9
9 11 11 11 11 15 16 15 17 15 14 14 15 14 16 14 10 9 7 9 6 6 9 9 9 11 12 12 13 9 9 11 12 9 9 9 9 9 9 9 9 9 9 9
11 15 14 13 11 12 16 13 10 10 10 12 8 4 3 3 4 6 7 9 7 7 7 8 11 11 12 14 12 9 9 10 9 9 9 9 9 9 9 9 9 9 7 8
13 14 13 12 11 11 11 13 13 8 7 3 4 4 4 5 7 8 9 9 9 10 8 10 12 13 12 13 10 8 8 10 10 9 9 9 8 9 8 8 8 8 8 8
13 12 10 11 12 11 10 9 9 10 8 3 4 4 5 6 8 9 9 9 7 6 11 11 13 11 12 13 9 8 8 8 9 7 6 8 7 6 6 8 8 7 7 7
11 10 11 10 10 9 8 8 8 10 8 6 6 6 6 7 7 8 9 8 6 10 11 14 11 10 10 11 9 7 6 6 6 6 7 6 6 7 7 7 7 7 7 8
8 7 8 8 8 8 6 7 7 7 5 5 5 6 8 8 8 6 4 4 7 10 9 9 9 10 10 11 9 7 7 7 6 5 6 7 7 7 7 8 7 7 7 6
7 8 8 7 7 7 6 7 4 2 4 6 7 7 6 6 6 7 6 7 9 9 8 8 9 10 14 7 5 6 6 6 5 6 6 6 7 7 7 7 7 6 6 6
8 8 7 7 7 4 4 5 5 5 6 6 5 5 7 7 5 4 7 8 11 8 6 8 10 13 10 5 6 5 5 5 5 5 6 7 6 5 6 6 6 6 5 6
7 7 6 6 6 3 2 2 4 5 7 7 7 6 6 3 3 6 7 7 11 8 7 10 12 12 6 6 5 6 5 5 5 6 6 6 6 6 6 6 6 6 5 5
6 5 5 4 4 4 3 2 3 3 4 6 5 5 5 6 7 7 7 10 9 10 7 7 7 7 5 6 5 5 5 5 5 5 5 6 6 6 6 6 6 5 5 5
3 3 4 1 3 3 3 3 3 4 4 5 7 6 6 6 7 8 9 8 7 7 7 6 6 7 6 5 5 5 5 5 5 5 5 5 5 5 5 5 5 5 4 4
Wind_Direction
270 273 275 281 269 267 249 260 258 274 270 271 274 254 267 284 281 280 276 248 227 220 181 208 173 176 171 163 163 157 154 147 140 133 128 129 130 131 134 139 138 137 138 128
284 281 274 271 259 262 273 272 273 272 278 281 278 260 209 238 257 262 268 276 255 208 198 210 191 182 180 171 163 146 137 127 126 130 132 135 132 137 135 132 136 139 139 148
273 285 281 290 259 253 253 261 267 275 283 284 278 276 245 262 270 254 259 139 306 282 207 193 210 185 184 178 169 158 150 145 147 142 136 133 134 139 142 148 144 148 148 134
265 275 270 273 293 246 249 257 258 262 273 276 274 270 265 212 262 255 217 25 290 294 294 256 188 200 180 172 179 167 153 150 149 146 142 145 151 155 153 143 149 149 153 144
255 256 280 289 279 261 261 274 264 275 276 272 265 240 253 227 115 46 339 311 337 342 318 288 275 189 176 169 172 159 163 158 157 155 151 157 154 150 141 142 150 155 159 148
240 255 259 267 286 339 314 250 267 248 258 252 253 230 259 35 122 107 25 357 348 344 326 318 285 204 171 163 167 174 168 160 153 155 145 153 141 141 151 164 162 153 156 149
230 244 256 263 274 284 278 256 299 295 246 247 226 205 130 161 112 73 53 21 2 356 345 12 355 131 165 165 168 155 148 143 140 135 138 141 138 148 159 155 152 152 152 141
231 240 258 314 272 265 239 348 310 286 225 211 205 123 169 157 78 7 336 16 21 3 4 34 45 124 137 142 129 133 139 139 139 142 142 140 147 158 160 156 153 149 150 153
289 290 216 245 281 303 307 311 287 297 288 202 219 206 214 221 222 303 314 335 47 346 108 119 142 141 138 132 134 137 140 140 142 139 146 147 154 156 159 163 158 154 160 159
302 295 315 356 296 274 258 297 250 251 277 217 233 220 228 230 249 261 253 268 211 206 194 182 164 155 145 145 147 145 143 146 146 148 146 148 150 165 162 161 160 162 172 163
284 287 311 272 262 323 297 273 288 249 247 244 239 241 252 268 269 282 297 266 195 192 196 180 157 153 148 149 156 157 150 148 147 147 147 150 159 162 160 157 172 171 175 167
276 298 307 299 332 320 326 318 292 286 250 250 246 253 258 266 275 284 289 286 185 162 176 182 169 156 149 161 169 160 153 153 152 153 154 163 157 145 119 119 112 144 145 148
284 292 290 296 294 284 285 286 293 272 274 285 263 250 257 260 277 331 299 292 245 180 188 181 169 162 159 164 169 162 159 157 154 165 166 166 159 158 148 121 116 118 109 114
285 304 288 277 282 295 294 285 255 248 245 236 246 254 255 259 253 163 229 225 112 138 155 164 162 163 165 167 167 163 164 161 155 171 160 156 162 165 161 163 161 156 150 153
284 283 291 293 284 277 270 266 263 266 245 240 247 243 238 247 256 249 173 182 157 149 161 166 166 165 158 156 155 150 152 151 160 154 149 156 165 167 170 174 173 170 169 183
314 303 293 291 293 296 288 279 268 254 256 258 256 256 255 251 258 254 163 175 165 177 167 171 168 155 150 145 145 141 145 145 153 157 158 167 172 175 177 181 184 182 178 186
303 296 310 301 300 292 270 256 259 257 263 265 264 263 259 251 236 228 177 159 170 159 159 161 152 148 150 149 149 149 152 163 167 167 172 178 181 185 186 188 193 197 184 185
283 278 284 285 290 294 298 297 285 275 274 272 271 285 155 175 194 133 139 140 127 136 152 147 147 151 155 156 160 162 160 166 177 178 180 186 190 191 193 196 200 203 196 178
304 310 303 289 293 289 289 294 302 345 326 132 140 165 129 121 147 161 153 154 157 159 148 145 147 157 161 164 163 165 165 173 182 189 189 184 195 199 195 199 203 203 205 157
319 307 302 298 300 295 289 279 284 268 274 257 110 130 167 168 156 152 152 164 174 159 145 147 159 164 165 165 194 169 170 171 191 188 183 185 187 205 198 198 206 201 203 205
312 311 305 308 309 301 284 286 274 262 250 227 205 191 159 143 140 143 154 160 124 140 150 156 165 165 171 164 191 161 160 171 195 182 170 204 184 193 204 207 203 206 204 210
317 315 310 315 316 316 319 305 273 240 200 173 189 157 141 147 146 141 79 148 145 154 151 166 170 162 154 156 187 150 161 189 189 191 181 186 202 201 205 201 203 208 215 208
313 317 314 316 324 322 330 349 0 50 146 147 146 146 153 151 158 155 145 139 146 156 161 160 132 118 137 174 147 150 176 179 188 183 198 189 201 203 206 202 201 200 202 204
316 319 317 319 314 339 5 11 28 53 78 85 99 120 132 136 110 76 118 135 133 154 139 124 130 135 146 149 141 155 180 187 193 191 193 194 202 200 197 193 195 196 202 197
317 312 301 329 312 359 22 67 90 81 90 96 96 100 99 99 119 122 128 125 142 147 124 136 147 154 165 146 159 175 181 187 190 193 194 194 198 200 195 195 193 198 193 192
323 328 326 338 330 329 347 338 79 101 119 112 104 100 91 94 108 116 116 134 146 128 131 143 153 167 166 158 168 169 174 178 177 191 194 192 192 193 192 194 183 184 184 178
303 320 324 326 19 5 8 34 103 105 106 110 107 99 107 109 108 114 123 133 131 121 131 137 149 164 159 155 168 173 181 180 171 197 198 194 188 188 185 178 174 172 171 148